sat.trackr.live / text

‹ back to catalog

STARLINK-3556

NORAD 51877 · 2022-022AB

PAYLOAD ACTIVE UNKNOWN

§ Identity

Operator
Country
US
Launch date
2022-03-03
Launch site
AFETR
Launch vehicle
Mass (kg)
RCS (m²)

Purposes: comms

External: N2YO · Heavens-Above · Gunter

§ Orbital elements

Epoch: 2026-09-20T04:08:12.450048Z

Period
93.85 min
Inclination
53.1592°
Eccentricity
0.0001393
Mean motion
15.34376551 rev/d
Perigee alt
461.8 km
Apogee alt
463.7 km
Semi-major
6,840.9 km
B*
1.4273e-4
RAAN
188.9352°
Arg perigee
96.9253°
Mean anomaly
263.1908°
Rev number
25,284

§ Raw data

STARLINK-35561 51877U 22022AB  26263.17236632  .00004446  00000+0  14273-3 0  99922 51877  53.1592 188.9352 0001393  96.9253 263.1908 15.34376551252841

JSON: /api/v1/satellites/51877 · /tle

For live sub-satellite position, see the globe view (requires WebGL).

§ Visibility from observer

Set your observer location to see the next 7 days of passes ≥ 10°. The values pass through the URL so the page stays shareable.

No JS? Fill the form by hand. The geolocation button needs JavaScript.